Regional Weather Roundup
Issued by NWS

Home | Current Version | Previous Version | Text Only | Print | Product List | Glossary On
Versions: 1 2 3 4 5 6 7 8 9 10 11 12 13 14 15 16 17 18 19 20 21 22 23 24 25 26 27 28 29 30 31 32 33 34 35 36 37 38 39 40 41 42 43 44 45 46 47 48 49 50
000
ASUS45 KTFX 081110
RWRMT
MONTANA REGIONAL WEATHER ROUNDUP
NATIONAL WEATHER SERVICE GREAT FALLS MT
400 AM MST MON FEB 08 2016

NOTE: "FAIR" INDICATES FEW OR NO CLOUDS BELOW 12000 FEET WITH NO
SIGNIFICANT WEATHER AND/OR OBSTRUCTIONS TO VISIBILITY.

MTZ001>007-043-081200-
WEST OF THE DIVIDE

CITY           SKY/WX    TMP DP  RH WIND       PRES   REMARKS
KALISPELL      CLOUDY    31  27  85 CALM      30.60R
MISSOULA       CLOUDY    31  25  78 N3        30.63S
BUTTE          CLOUDY    26  19  74 NW6       30.55F WCI  19
MULLAN PASS    CLOUDY    32  24  72 SW6       30.55S WCI  26
ANACONDA         N/A     28  19  69 CALM      30.56S
DEER LODGE       N/A     32  27  80 CALM      30.58S
HAMILTON         N/A     30  25  80 CALM      30.60R
LIBBY            N/A     30  25  80 CALM      30.64S
PLAINS           N/A     28  23  81 CALM      30.60S
$$

MTZ008-052>055-081200-
SOUTHWEST MONTANA

CITY           SKY/WX    TMP DP  RH WIND       PRES   REMARKS
BOZEMAN        CLOUDY    30  25  81 CALM      30.55R
DILLON         CLOUDY    30  14  51 CALM      30.55F
ENNIS          CLEAR     23  19  86 CALM      30.59F
TWIN BRIDGES     N/A     23  14  68 SE6       30.48S WCI  16
$$

MTZ009-010-012-014-046-048-049-054-081200-
EAST SLOPES AND CENTRAL MONTANA

CITY           SKY/WX    TMP DP  RH WIND       PRES   REMARKS
CUT BANK       MOCLDY    39  23  52 W24G35    30.35S WCI  28
GREAT FALLS    CLOUDY    36  21  54 SW15      30.39F WCI  27
MALMSTROM AFB  CLOUDY    33  23  67 SW14      30.41F WCI  23
HELENA         CLOUDY    40  24  53 W13       30.50S
CHOTEAU          N/A     43  27  52 W17G24    30.38F
CONRAD           N/A     24  20  85 S5        30.33F
$$

MTZ011-013-016-021-045-047-050-051-081200-
NORTH CENTRAL MONTANA

CITY           SKY/WX    TMP DP  RH WIND       PRES   REMARKS
HAVRE          CLOUDY    19  15  84 CALM      30.39F
LEWISTOWN      CLOUDY    24  15  68 W8        30.38F WCI  15
N BAR RANCH      N/A     34  19  55 NW15G23   30.37S WCI  24
CHINOOK          N/A     18  14  86 CALM      30.42F
$$

MTZ017>020-022>027-061-062-081200-
NORTHEAST MONTANA

CITY           SKY/WX    TMP DP  RH WIND       PRES   REMARKS
GLASGOW        CLOUDY    20  14  77 N6        30.40S WCI  12
JORDAN           N/A     23  17  78 W8        30.41R WCI  14
SIDNEY         CLOUDY    23  14  68 NW15      30.37S WCI  10
WOLF POINT     CLOUDY    22  16  78 SW8       30.41R WCI  12
MALTA            N/A    N/A N/A N/A MISG      30.35
PLENTYWOOD       N/A     19  16  86 W6        30.34S WCI  11
POPLAR           N/A     21  16  79 CALM      30.40S
SCOBEY           N/A     19   6  57 CALM      30.31R
$$

MTZ028>42-056>058-081200-
SOUTHCENTRAL AND SOUTHEAST MONTANA

CITY           SKY/WX    TMP DP  RH WIND       PRES   REMARKS
BAKER          CLOUDY    20  13  74 W12       30.36S WCI   8
BILLINGS       CLOUDY    27  12  53 SW6       30.40S WCI  20
LIVINGSTON     CLOUDY    43  21  41 W21       30.47R
MILES CITY     CLOUDY    22  15  75 W10       30.40F WCI  11
EKALAKA          N/A     20  10  65 W5        30.29S
FORSYTH          N/A     25  14  63 W3        30.43S
LAUREL           N/A     27  11  51 W2        30.35S
ROUNDUP          N/A     22   8  54 CALM      30.28S
$$

REGIONAL REPORTS...DAKOTAS

CITY           SKY/WX    TMP DP  RH WIND       PRES   REMARKS
WILLISTON      CLEAR     24  16  71 NW17      30.33S WCI  11
MINOT          CLEAR     25  15  66 NW17G29   30.23R WCI  12
DICKINSON      CLEAR     18  13  80 W15       30.28R WCI   4
BEACH            N/A     21  14  73 NW13      30.37S WCI   9
CROSBY           N/A     19  19 100 NW13      30.32F WCI   7
TIOGA            N/A     18  18 100 NW14      30.33F WCI   4
WATFORD CITY     N/A     21  16  79 NW8       30.33S WCI  12
BISMARCK       CLEAR     28  17  63 NW21G32   30.24R WCI  15
GRAND FORKS    LGT SNOW  14   8  77 N28G35    30.12R BLWGSNOWWCI  -6
FARGO          HAZE      14   9  80 N35G44    30.10R VSB 1/4 WCI  -8
BUFFALO SD       N/A     23  12  62 NW20      30.26S WCI   8
RAPID CITY     CLEAR     29   9  43 NW29G36   30.31R WCI  14
$$

REGIONAL REPORTS...WYOMING/IDAHO/WASHINGTON

CITY           SKY/WX    TMP DP  RH WIND       PRES   REMARKS
GILLETTE       CLOUDY    20   9  62 W13       30.37S WCI   7
SHERIDAN       CLOUDY    29  14  53 W6        30.41R WCI  23
BUFFALO WY     CLOUDY    24  11  57 CALM      30.38R
CODY           CLOUDY    23  10  58 CALM      30.36F
YELLOWSTONE LA   N/A     15  11  83 CALM      30.57S
IDAHO FALLS    FOG       22  19  89 N3        30.68S VSB 3/4
SALMON         CLOUDY    21  18  86 CALM      30.70S
BOISE          CLEAR     32  29  88 SE6       30.67S WCI  26
SPOKANE        PTCLDY    31  28  89 NE6       30.60S WCI  25
$$

REGIONAL REPORTS...ALBERTA

CITY           SKY/WX    TMP DP  RH WIND       PRES   REMARKS
EDMONTON       MOCLDY    30  16  55 SW5       30.28S
CALGARY        CLEAR     37  19  48 W7G17     30.26F
LETHBRIDGE     CLEAR     39  27  60 W23G32    30.33R WCI  29
MEDICINE HAT   MOCLDY    21  16  79 E2        30.37R
WATERTON GATE    N/A     37  23  56 SW26G38     N/A  WCI  26
CARDSTON         N/A     43  23  45 W17G26      N/A
MILK RIVER       N/A     21  19  93 W5          N/A
ONEFOUR          N/A     21  12  68 E5          N/A
$$

REGIONAL REPORTS...SASKATCHEWAN

CITY           SKY/WX    TMP DP  RH WIND       PRES   REMARKS
SWIFT CURRENT  CLOUDY    21  16  79 W12       30.35R WCI   9
SASKATOON      MOCLDY    12  10  92 W2        30.36R
CYPRESS HILLS    N/A     23   5  46 SW2         N/A
VAL MARIE        N/A     18  10  73 NW5         N/A
ROCKGLEN         N/A     23  14  68 NW12        N/A  WCI  12
$$




USA.gov is the U.S. government's official web portal to all federal, state and local government web resources and services.